{"data":{"norad_id":59463,"epoch":"2026-09-20T23:46:39.786528Z","epoch_age_seconds":122899,"freshness":"FRESH","line1":"1 59463U 24068J   26263.99073827  .00002855  00000+0  11328-3 0  9998","line2":"2 59463  43.0024   7.9171 0000464 273.6974  86.3824 15.27560676138434","mean_motion":15.27560676,"eccentricity":4.64e-5,"inclination_deg":43.0024,"raan_deg":7.9171,"arg_perigee_deg":273.6974,"mean_anomaly_deg":86.3824,"bstar":0.00011328,"rev_number":13843,"period_min":94.267941210081,"perigee_km":482.78859793768,"apogee_km":483.42532137714,"semimajor_km":6861.2439596574,"source":"CELESTRAK","updated_at":"2026-09-22T09:00:48.947952Z"}}